Bloomington, IL

1:03 PM CDT on April 26, 2017 (GMT -0500)
Central Ill Regional

Weather History for KBMI - June, 2014

Change the Weather History Date:

Monday, June 16, 2014

  Actual Average Record
Temperature  
Mean Temperature 74 °F -  
Max Temperature 86 °F 85 °F 92 °F (2007)
Min Temperature 63 °F 56 °F 37 °F (1997)
Cooling Degree Days 10    
Growing Degree Days 24 (Base 50)    
Moisture  
Dew Point 67 °F    
Average Humidity 75    
Maximum Humidity 93    
Minimum Humidity 59    
Precipitation  
Precipitation 0.00 in - - ()
Sea Level Pressure  
Sea Level Pressure 30.00 in    
Wind  
Wind Speed 9 mph (SSW)    
Max Wind Speed 20 mph    
Max Gust Speed -    
Visibility 10 miles    
Events      
Averages and records for this station are not official NWS values.
T = Trace of Precipitation, MM = Missing Value Source: NWS Daily Summary

Daily Weather History Graph

Daily Weather History Graph

Search for Another Location

Airport or City:

Trip Planner

Search our weather history database for the weather conditions in past years. The results will help you decide how hot, cold, wet, or windy it might be!

Date:

Astronomy

Jun. 16, 2014 Rise Set
Actual Time 5:24 AM CDT 8:28 PM CDT
Civil Twilight 4:51 AM CDT 9:01 PM CDT
Nautical Twilight 4:09 AM CDT 9:43 PM CDT
Astronomical Twilight 3:19 AM CDT 10:33 PM CDT
Moon 11:18 PM CDT (6/16) 9:29 AM CDT (6/16)
Length of Visible Light 16h 09m
Length of Day
15h 03m
Waning Gibbous, 83% of the Moon is Illuminated
Jun 16
Waning Gibbous
Jun 19
Last Quarter
Jun 27
New
Jul 5
First Quarter
Jul 12
Full

Hourly Weather History & Observations

Time (CDT) Temp. Heat Index Dew Point Humidity Pressure Visibility Wind Dir Wind Speed Gust Speed Precip Events Conditions
12:56 AM 70.0 °F - 63.9 °F 81% 29.99 in 10.0 mi SW 6.9 mph - N/A   Scattered Clouds
1:56 AM 68.0 °F - 63.0 °F 84% 30.00 in 10.0 mi WSW 5.8 mph - N/A   Clear
2:56 AM 65.8 °F - 63.0 °F 90% 30.01 in 10.0 mi WSW 5.8 mph - N/A   Scattered Clouds
3:56 AM 65.8 °F - 63.0 °F 90% 30.01 in 10.0 mi SW 4.6 mph - N/A   Clear
4:56 AM 63.9 °F - 61.9 °F 93% 30.04 in 10.0 mi SSW 5.8 mph - N/A   Clear
5:56 AM 63.9 °F - 61.9 °F 93% 30.05 in 10.0 mi South 3.5 mph - N/A   Clear
6:56 AM 68.0 °F - 65.8 °F 93% 30.06 in 10.0 mi SSW 5.8 mph - N/A   Partly Cloudy
7:56 AM 72.9 °F - 66.9 °F 82% 30.07 in 10.0 mi SSW 6.9 mph - N/A   Partly Cloudy
8:56 AM 75.9 °F - 66.9 °F 74% 30.07 in 10.0 mi West 4.6 mph - N/A   Clear
9:56 AM 77.9 °F - 65.8 °F 66% 30.07 in 10.0 mi SSW 5.8 mph - N/A   Clear
10:56 AM 81.0 °F 83.3 °F 66.9 °F 62% 30.06 in 10.0 mi South 9.2 mph - N/A   Scattered Clouds
11:56 AM 81.9 °F 84.8 °F 68.0 °F 63% 30.04 in 10.0 mi SSW 8.1 mph - N/A   Scattered Clouds
12:56 PM 82.9 °F 85.8 °F 68.0 °F 60% 30.03 in 10.0 mi South 11.5 mph - N/A   Partly Cloudy
1:56 PM 82.9 °F 86.3 °F 68.9 °F 62% 30.01 in 10.0 mi South 12.7 mph - N/A   Mostly Cloudy
2:56 PM 86.0 °F 90.7 °F 70.0 °F 59% 30.01 in 10.0 mi South 15.0 mph - N/A   Scattered Clouds
3:56 PM 84.9 °F 89.4 °F 70.0 °F 61% 30.00 in 10.0 mi South 17.3 mph - N/A   Partly Cloudy
4:56 PM 82.9 °F 87.0 °F 70.0 °F 65% 29.99 in 10.0 mi South 16.1 mph - N/A   Clear
5:56 PM 81.0 °F 84.4 °F 70.0 °F 69% 29.96 in 10.0 mi South 13.8 mph - N/A   Clear
6:56 PM 79.9 °F - 70.0 °F 72% 29.94 in 10.0 mi South 13.8 mph - N/A   Clear
7:56 PM 79.9 °F - 70.9 °F 74% 29.92 in 10.0 mi SSE 12.7 mph - N/A   Clear
8:56 PM 77.9 °F - 68.9 °F 74% 29.91 in 10.0 mi SSE 13.8 mph - N/A   Clear
9:56 PM 75.9 °F - 68.0 °F 76% 29.91 in 10.0 mi SSE 15.0 mph - N/A   Clear
10:56 PM 75.9 °F - 68.0 °F 76% 29.87 in 10.0 mi South 19.6 mph - N/A   Clear
11:56 PM 74.8 °F - 68.0 °F 79% 29.86 in 10.0 mi South 18.4 mph - N/A   Clear